Погода в Аральске

Погода в Аральске : погода сейчас, прогноз погоды и архив. Всё, что Вы хотите узнать о погоде в Аральске!

Хотите узнать прогноз погоды в Аральске? Тогда Вам сюда: Погода в Аральске

Поиск расширенной информации на нашем сайте:

Другие новости

Новости СМИ2

Главная страница сайта

Новости сайта

03.07.2017

Напоминаем, что на нашем специализированном сайте Метеоцентр.Азия вы можете получить высокодетализированные автоматические прогнозы погоды по пунктам России, СНГ и мира в авиационном формате (включающие направление и скорость ветра, видимость, явления погоды, количество и форму облачности, нижнюю и верхнюю границу облачности).


Погода в Аральске - сегодня

Время (UTC), дата Ветер
(°,м/с) 
Видим.   Явления Облачность Т
(°С)
Тd
(°С)
f(%) Тe
(°С)
Pmin
(гПа)
dP
(гПа)
Po
(мм)
O2
(г/м3)
Тmin Tmax R s Состояние
почвы
03 19.08.17 030 (СВ) 20000 м    4/0 верхняя 
[Ci sp]
+20.5 +2.5 30 +21  1021.2  1.1  761  285  +18.2        сухая 
06 19.08.17 040 (СВ) 20000 м    4/0 верхняя 
[Ci fib]
+25.9 +1.7 21 +26  1021.7  0.6  762  280  +18.2         
09 19.08.17 030 (СВ) 20000 м    4/0 верхняя 
[Ci fib]
+27.5 +2.5 20 +28  1021  -0.6  761  278           
12 19.08.17 040 (СВ) 20000 м    4/0 верхняя 
[Ci fib]
+28.6 +0.6 16 +29  1020.8  -0.2  761  277           
15 19.08.17 030 (СВ) 20000 м    ясно 
+26.7 -2.2 15 +27  1021.2  0.3  761  280    +29       
18 19.08.17 020 (С) н/о    ясно 
+21.5 -2.2 20 +22  1022.1  0.8  762  285    +29       
21 19.08.17 020 (С) н/о    ясно 
+19.8 +0.9 28 +20  1022  -0.1  762  286           
00 20.08.17 030 (СВ) н/о    ясно 
+18.1 +1.3 32 +18  1021.8  -0.2  762  288           
03 20.08.17 040 (СВ) 20000 м    ясно 
+18.2 +2.5 35 +18  1022.7  0.9  762  288           
06 20.08.17 060 (СВ) 20000 м    ясно 
+26.1 +2.5 22 +26  1023.4  0.8  763  280  +17         
09 20.08.17 050 (СВ) 20000 м    ясно 
+29.2 -0.5 15 +29  1022.4  -0.9  762  278           
12 20.08.17 060 (СВ) 20000 м    ясно 
+30.7 +0.9 15 +31  1021.4  -1  761  276           
15 20.08.17 060 (СВ) 20000 м    ясно 
+28.5 +2.5 19 +29  1021  -0.4  761  277    +31       
18 20.08.17 050 (СВ) н/о    ясно 
+24.4 +4.6 28 +24  1021.7  0.6  762  281    +31       
21 20.08.17 040 (СВ) н/о    ясно 
+20.9 +4.8 35 +21  1020.9  -0.9  761  284           
00 21.08.17 020 (С) н/о    ясно 
+17.7 +3 37 +18  1020.5  -0.4  761  287           
03 21.08.17 360 (С) 20000 м    8/0 верхняя 
[Ci fib]
+19.1 +3.8 36 +20  1021  0.5  761  286  +17.4        сухая 
06 21.08.17 070 (В) 20000 м    8/0 верхняя 
[Ci fib]
+28.9 +0.6 16 +29  1020.8  761  277  +17.4         
09 21.08.17 030 (СВ) 20000 м    4/1 1000 м верхняя 
[Cu hum|Ci fib]
+31.7 +3.2 16 +32  1019.2  -1.5  760  274           
12 21.08.17 080 (В) 20000 м    4/3 1000 м верхняя 
[Cu hum|Ci fib]
+32.5 +3.4 16 +33  1017.1  -2.1  758  273           
15 21.08.17 110 (В) 20000 м    5/0 средняя, верхняя 
[Ac trans|Ci sp]
+29.8 +3.4 19 +30  1016.6  -0.6  758  275    +33       
18 21.08.17 тихо ()   н/о    3/0 средняя 
[Ac trans]
+25.7 +4.1 25 +26  1016.6  -0.1  758  278    +33       
21 21.08.17 030 (СВ) н/о    3/0 средняя 
[Ac trans]
+21.1 +3 30 +21  1016.9  0.2  758  283           
00 22.08.17 040 (СВ) н/о    3/0 средняя 
[Ac trans]
+19.1 +1.1 30 +20  1017.2  0.3  758  285           
03 22.08.17 090 (В) 20000 м    8/0 средняя, верхняя 
[Ac trans|Ci sp]
+20.7 +1.3 27 +21  1018.3  1.1  759  284  +18.9        сухая 
Время (UTC), дата Ветер
(°,м/с) 
Видим.   Явления Облачность Т
(°С)
Тd
(°С)
f(%) Тe
(°С)
Pmin
(гПа)
dP
(гПа)
Po
(мм)
O2
(г/м3)
Тmin Tmax R s Состояние
почвы

Для получения пояснительной информации подведите курсор к названию столбца.

ПОГОДА в Аральске - архив

Всё, что Вы хотите узнать о погоде в Аральске - удобно и подробно!

Выберите нужную дату (начиная с 1 января 2015* года) и нажмите кнопку "Найти".
Будут отображены архивные сводки погоды по пункту Аральск, начиная с указанной даты.


Отображать данные в формате CSV (для использования в таблицах Excel)


Внимание! Наш архив погоды предназначен исключительно для личного некоммерческого использования в познавательных целях. Если Вам необходимы официальные справки о состоянии погоды (для производственных, юридических, коммерческих и т.п. целей), обращайтесь в органы Росгидромета.

*Примечание: данная дата относится к архиву по метеостанциям СССР (Россия, СНГ, Балтия).
Архив по метеостанциям Зарубежной Европы и Азии (кроме Китая) хранится 10 дней, по другим регионам земного шара (Китай, Африка, Америка, Австралия, Океания) - 1 день.

Аральск - район местоположения метеостанции


Название, широта, долгота, высота метеостанции:
Аральск 46.8°ш. 61.6°д. 62 м над ур. моря [Казахстан]

Дополнительная информация

В oтличие oт бoльшинства пoгoдных сайтoв мы публикуем пoдрoбную метеoинфoрмацию в детальнoм прoфессиoнальнoм фoрмате.

Характеристики температуры и влажнoсти вoздуха измеряются на высoте 2 м в тени вдали oт зданий и деревьев.
Скoрoсть ветра измеряется на высoте 10 м (на урoвне рoста челoвека скoрoсть ветра ниже в 1.5-2 раза). Если метеoстанция нахoдится в гoрoде или в лесу, тo скoрoсть ветра занижена на 2-4 м/с пo сравнению с oткрытым местoм. Скoрoсть ветра над акватoриями крупных рек и oзёр, а также на вершинах хoлмoв на 2-5 м/с выше, чем в oбычных услoвиях.
Атмoсфернoе давление в разных тoчках местнoсти мoжет значительнo oтличаться oт давления на метеoстанции, в зависимoсти oт услoвий рельефа (при пoдъёме на 10 м давление пoнижается примернo на 1 мм рт.ст.).